TIANQI 33 (62365 NORAD) Tracking and Keplerian Element Data

This shows tracking and keplerian element data for the satellite.

Feedback or suggestion? Click here.




ElementValue
Catalog62365
NameTIANQI 33
Epoch Orbit660
Epoch Day35.08621646
Epoch Year2025
RAAN17.8725
Inclination44.9848
Eccentricity0.0007617
Argument of Perigee197.9198
Mean Anonmoly162.1367
Mean Motion13.98895373
Decay Rate2.8E-06
L11 62365U 24245A 25035.08621646 .00000280 00000+0 28156-3 0 9991
L22 62365 44.9848 17.8725 0007617 197.9198 162.1367 13.98895373 6600



Live tracking and technical data element details for TIANQI 33 (NORAD 62365). TIANQI 33 can be tracked NOW for your location showing map with azimuth and elevation plus other details from your city location.







IsCatalogInMostPopularTable: catalog: 62365, numindb: 11
Update: records affected: 1



GetName: 62365 TIANQI 33

Hit Count: updated at: Sun, 18 May 2025 22:09:25 GMT